Regional Weather Roundup
Issued by NWS

Home | Current Version | Previous Version | Text Only | Print | Product List | Glossary Off
Versions: 1 2 3 4 5 6 7 8 9 10 11 12 13 14 15 16 17 18 19 20 21 22 23 24 25 26 27 28 29 30 31 32 33 34 35 36 37 38 39 40 41 42 43 44 45 46 47 48 49 50

000
ASUS45 KABQ 182201
RWRNM
WEATHER ROUNDUP FOR NEW MEXICO
NATIONAL WEATHER SERVICE ALBUQUERQUE NM
400 PM MDT THU SEP 18 2014

NOTE: "FAIR" MEANS FEW OR NO CLOUDS BELOW 12,000 FEET AGL WITH NO
       SIGNIFICANT WEATHER OR OBSTRUCTIONS TO VISION.

      THIS PRODUCT IS RELEASED AS TWO VERSIONS.  ONE VERSION NEAR
      THE TOP OF THE HOUR CONTAINING PRELIMINARY DATA FROM ALBUQUERQUE
      AND OTHER STATIONS.  A FINAL VERSION WITH ADDITIONAL DATA IS
      ISSUED ABOUT 10 MINUTES AFTER THE HOUR.

NMZ501-503-504-510>518-182300-
NORTHWEST PLATEAU/NORTHCENTRAL MOUNTAINS

CITY           SKY/WX    TMP DP  RH WIND       PRES   REMARKS
FARMINGTON     SUNNY     83  39  21 VRB5      29.97F
LOS ALAMOS     SUNNY     79  29  16 CALM      30.11S
SANTA FE       SUNNY     82  32  16 W3        30.02F
TAOS           SUNNY     81  32  17 SE14G22   30.10S
ANGEL FIRE     FAIR      73  27  18 E16G24    30.22F

$$
NMZ402-403-502-505>509-182300-
WESTCENTRAL MOUNTAINS/SOUTHWEST MOUNTAINS

CITY           SKY/WX    TMP DP  RH WIND       PRES   REMARKS
GALLUP         PTSUNNY   78  49  35 SW5       30.04F
GRANTS         SUNNY     79  37  22 SE13G18   30.07F
SILVER CITY    CLOUDY    66  61  82 E10       30.03S

$$
NMZ407-409-411-412-182300-
SOUTHERN DESERTS

CITY           SKY/WX    TMP DP  RH WIND       PRES   REMARKS
DEMING         HVY RAIN  64  64 100 NE12      29.96S FOG
LAS CRUCES     CLOUDY    65  64  96 NE7       29.98F
HOLLOMAN AFB   CLOUDY    68  64  85 CALM      29.96F
ALAMOGORDO     CLOUDY    68  64  88 W6        29.98F
T OR C         CLOUDY    69  60  73 VRB3      29.99F

$$
NMZ519>523-182300-
CENTRAL VALLEYS/CENTRAL HIGHLANDS

CITY           SKY/WX    TMP DP  RH WIND       PRES   REMARKS
ALBUQUERQUE    MOSUNNY   81  50  33 S14       29.98F
DOUBLE EAGLE   MOSUNNY   81  46  30 S10       30.01F
CLINES CORNERS MOSUNNY   73  42  32 E13G21    30.10F
BELEN          FAIR      78  56  47 SW9       29.98F
SOCORRO        RAIN      66  64  91 SE6       30.00F

$$
NMZ524>526-539-540-182300-
SOUTHCENTRAL MOUNTAINS

CITY           SKY/WX    TMP DP  RH WIND       PRES   REMARKS
RUIDOSO        NOT AVBL

$$
NMZ527>531-182300-
NORTHEAST HIGHLANDS/NORTHEAST PLAINS

CITY           SKY/WX    TMP DP  RH WIND       PRES   REMARKS
LAS VEGAS      SUNNY     75  46  35 E14G21    30.11S
RATON          SUNNY     81  39  22 E16       30.06F
CLAYTON        MOSUNNY   76  57  51 SE14G22   30.04S

$$
NMZ532>537-182300-
EASTCENTRAL PLAINS

CITY           SKY/WX    TMP DP  RH WIND       PRES   REMARKS
TUCUMCARI      PTSUNNY   77  61  57 S15       29.97S
CANNON AFB     NOT AVBL
CLOVIS AIRPORT   N/A     70  63  78 SE13      30.03F

$$
NMZ028-029-538-182300-
SOUTHEAST PLAINS

CITY           SKY/WX    TMP DP  RH WIND       PRES   REMARKS
ROSWELL        CLOUDY    76  63  64 SE7       29.94F
CARLSBAD       PTSUNNY   77  71  82 NE5       29.91F
HOBBS          PTSUNNY   73  68  83 E8        29.96F


$$


USA.gov is the U.S. government's official web portal to all federal, state and local government web resources and services.